TimeCST,TemperatureF,Dew PointF,Humidity,Sea Level PressureIn,VisibilityMPH,Wind Direction,Wind SpeedMPH,Gust SpeedMPH,PrecipitationIn,Events,Conditions,WindDirDegrees,DateUTC
12:52 AM,46.0,37.9,73,30.28,10.0,SE,9.2,-,N/A,,Clear,130,2013-02-17 06:52:00
1:52 AM,45.0,37.9,76,30.27,10.0,SSE,9.2,-,N/A,,Clear,150,2013-02-17 07:52:00
2:52 AM,43.0,37.0,80,30.25,10.0,South,5.8,-,N/A,,Clear,180,2013-02-17 08:52:00
3:52 AM,41.0,37.0,86,30.22,10.0,SE,4.6,-,0.00,,Clear,130,2013-02-17 09:52:00
4:52 AM,43.0,37.9,82,30.22,10.0,SE,3.5,-,N/A,,Clear,130,2013-02-17 10:52:00
5:52 AM,42.1,37.9,85,30.21,10.0,ESE,3.5,-,N/A,,Clear,120,2013-02-17 11:52:00
6:52 AM,44.1,39.0,82,30.21,10.0,ESE,4.6,-,N/A,,Clear,120,2013-02-17 12:52:00
7:52 AM,50.0,44.1,80,30.21,10.0,ESE,5.8,-,N/A,,Clear,120,2013-02-17 13:52:00
8:52 AM,63.0,48.9,60,30.22,10.0,SE,13.8,-,N/A,,Clear,140,2013-02-17 14:52:00
9:52 AM,69.1,48.9,49,30.22,10.0,SSE,19.6,27.6,N/A,,Clear,150,2013-02-17 15:52:00
10:52 AM,72.0,48.9,44,30.20,10.0,SSE,23.0,31.1,N/A,,Scattered Clouds,150,2013-02-17 16:52:00
11:52 AM,71.1,48.9,45,30.17,10.0,SSE,19.6,31.1,N/A,,Overcast,150,2013-02-17 17:52:00
12:52 PM,71.1,48.9,45,30.13,10.0,SSE,21.9,28.8,N/A,,Overcast,160,2013-02-17 18:52:00
1:52 PM,70.0,50.0,49,30.09,10.0,South,20.7,29.9,N/A,,Overcast,170,2013-02-17 19:52:00
2:52 PM,70.0,51.1,51,30.06,10.0,SSE,24.2,33.4,N/A,,Overcast,150,2013-02-17 20:52:00
3:52 PM,70.0,51.1,51,30.04,10.0,SSE,24.2,33.4,N/A,,Overcast,150,2013-02-17 21:52:00
4:52 PM,69.1,52.0,54,30.04,10.0,SSE,21.9,34.5,N/A,,Overcast,150,2013-02-17 22:52:00
5:52 PM,68.0,53.1,59,30.03,10.0,SSE,24.2,34.5,N/A,,Overcast,150,2013-02-17 23:52:00
6:52 PM,66.9,54.0,63,30.03,10.0,SSE,23.0,27.6,N/A,,Overcast,150,2013-02-18 00:52:00
7:52 PM,66.9,54.0,63,30.03,10.0,SSE,19.6,31.1,N/A,,Overcast,150,2013-02-18 01:52:00
8:52 PM,66.9,55.0,66,30.04,10.0,SSE,18.4,-,N/A,,Overcast,150,2013-02-18 02:52:00
9:52 PM,66.9,55.9,68,30.03,10.0,SSE,17.3,26.5,N/A,,Overcast,150,2013-02-18 03:52:00
11:52 PM,68.0,57.0,68,30.01,10.0,SSE,18.4,-,N/A,,Overcast,160,2013-02-18 05:52:00